Погода в Витхани

Вьетнам     9°46′52″N   105°27′58″E
темп.,
°C
ветер,
м/с
пор.,
м/с
влажн.,
%
обл.,
%
осадки,
мм/ч
давл.,
гПа
погр.,
м
17 августа, ср
ср1701:00+25зюз248895 0.0 1008105
04:00+25ююз229199 0.1 100843
07:00+26юз258999 0.1 1009201
10:00+31зюз5664100 0.0 10101338
13:00+32юз4661100 0.1 10071474
16:00+31зюз576471 1.3 10061307
19:00+27з498398 1.7 1007267
22:00+26зюз37892 0.0 1010198
18 августа, чт
чт1801:00+25юз369327 1.6 1008187
04:00+25зюз3693100 0.1 1007179
07:00+26зюз268810 0.1 1009235
10:00+31з576597 0.0 10091442
13:00+32зсз676099 0.3 10071531
16:00+31з6764100 0.1 10061201
19:00+27зюз4881100 0.1 1007289
22:00+26зюз3887100 0.0 1008276
19 августа, пт
пт1901:00+26зюз3889100 0.0 1007305
04:00+25зюз389297 2.5 1006223
07:00+26зюз3989100 3.3 1007474
10:00+31з686797 0.0 10081309
13:00+31з6866100 1.5 10061412
16:00+29з6973100 0.3 1005932
19:00+27з51082100 0.3 1006481
22:00+26зюз3886100 0.0 1008277
20 августа, сб
сб2001:00+26зюз399095 0.0 1006345
04:00+25юз3991100 0.0 1006259
07:00+26зюз3988100 0.0 1007535
10:00+31з7965100 0.1 10071483
13:00+32з8960100 0.1 10051742
16:00+31з7106559 0.0 10041461
19:00+27з5981100 0.0 1006433
22:00+26зюз3887100 0.0 1007302
21 августа, вс
вс2101:00+26юз3890100 0.0 1006283
04:00+25юз3991100 0.0 1005320
07:00+26зюз41085100 0.0 1006709
10:00+31з7964100 0.0 10071447
13:00+31з7963100 2.6 10051545
16:00+31з6864100 0.9 10041536
19:00+27зюз4881100 1.0 1006309
22:00+26юз3888100 0.0 1008261